Location: Newark
(46.1292°N, 1.0086°W)
Time: 20:47:27
(UTC+00:00)

Vanguard 3 - Pass Details

Date: 17 November 2019
Orbit: 508 x 3263 km, 33.3° (Epoch: 12 December)

Event Time Altitude Azimuth Distance (km) Brightness Sun altitude
Rises 17:01:42 0° 259° (W) 7,220 14.2 -5.8°
Reaches altitude 10° 17:06:58 10° 255° (WSW) 6,101 13.4 -6.6°
Maximum altitude 17:24:10 49° 189° (S) 3,013 10.2 -9.5°
Drops below altitude 10° 17:35:20 10° 119° (ESE) 4,076 10.3 -11.3°
Enters shadow 17:37:39 - 114° (ESE) 4,633 10.6 -11.7°
Sets 17:38:06 0° 114° (ESE) 4,748 - -11.8°
